Change the Weather History Date:

Sunday, December 1, 2013

  Actual Average (KTOC) Record (KTOC)
Temperature  
Mean Temperature 38 °F -  
Max Temperature 56 °F 57 °F 73 °F (2014)
Min Temperature 22 °F 36 °F 38 °F (2013)
Degree Days  
Heating Degree Days 26    
Moisture  
Dew Point 28 °F    
Average Humidity 76    
Maximum Humidity 92    
Minimum Humidity 37    
Precipitation  
Precipitation 0.00 in - - ()
Sea Level Pressure  
Sea Level Pressure 30.18 in    
Wind  
Wind Speed 0 mph (SSE)    
Max Wind Speed 5 mph    
Max Gust Speed -    
Visibility 10 miles    
Events      
Averages and records for this station are not official NWS values.
T = Trace of Precipitation, MM = Missing Value Source: NWS Daily Summary

Daily Weather History Graph

Daily Weather History Graph

Search for Another Location

Airport or City:

Trip Planner

Search our weather history database for the weather conditions in past years. The results will help you decide how hot, cold, wet, or windy it might be!

Date:

Astronomy

Dec. 01, 2013 Rise Set
Actual Time 7:24 AM EST 5:21 PM EST
Civil Twilight 6:56 AM EST 5:49 PM EST
Nautical Twilight 6:24 AM EST 6:20 PM EST
Astronomical Twilight 5:54 AM EST 6:51 PM EST
Moon 5:43 AM EST (12/1) 4:28 PM EST (12/1)
Length of Visible Light 10h 53m
Length of Day
9h 57m
Waning Crescent, 2% of the Moon is Illuminated
Dec 1
Waning Crescent
Dec 2
New
Dec 9
First Quarter
Dec 17
Full
Dec 25
Last Quarter

Hourly Weather History & Observations

Time (EST) Temp. Windchill Dew Point Humidity Pressure Visibility Wind Dir Wind Speed Gust Speed Precip Events Conditions
12:15 AM 30.9 °F - 26.6 °F 84% 30.35 in 10.0 mi Calm Calm - N/A   Overcast
12:35 AM 30.9 °F - 26.6 °F 84% 30.34 in 10.0 mi Calm Calm - N/A   Mostly Cloudy
12:55 AM 29.5 °F - 25.3 °F 85% 30.34 in 10.0 mi Calm Calm - N/A   Scattered Clouds
1:15 AM 28.4 °F - 25.2 °F 88% 30.33 in 10.0 mi Calm Calm - N/A   Scattered Clouds
1:35 AM 28.9 °F - 25.9 °F 88% 30.33 in 10.0 mi Calm Calm - N/A   Mostly Cloudy
1:55 AM 28.2 °F - 25.3 °F 89% 30.33 in 10.0 mi Calm Calm - N/A   Mostly Cloudy
2:15 AM 28.2 °F - 25.5 °F 90% 30.32 in 10.0 mi Calm Calm - N/A   Scattered Clouds
2:35 AM 27.9 °F - 25.5 °F 91% 30.31 in 10.0 mi Calm Calm - N/A   Scattered Clouds
2:55 AM 26.4 °F - 23.5 °F 89% 30.32 in 10.0 mi Calm Calm - N/A   Scattered Clouds
3:15 AM 27.3 °F - 25.3 °F 92% 30.31 in 10.0 mi Calm Calm - N/A   Scattered Clouds
3:35 AM 26.2 °F - 24.1 °F 92% 30.31 in 10.0 mi Calm Calm - N/A   Scattered Clouds
3:55 AM 24.8 °F - 22.3 °F 90% 30.30 in 10.0 mi Calm Calm - N/A   Scattered Clouds
4:15 AM 25.3 °F - 23.2 °F 91% 30.30 in 10.0 mi Calm Calm - N/A   Clear
4:35 AM 25.0 °F - 22.8 °F 91% 30.30 in 10.0 mi Calm Calm - N/A   Scattered Clouds
4:55 AM 25.3 °F - 23.0 °F 91% 30.29 in 10.0 mi Calm Calm - N/A   Scattered Clouds
5:15 AM 25.5 °F - 23.5 °F 92% 30.29 in 10.0 mi Calm Calm - N/A   Scattered Clouds
5:35 AM 24.8 °F - 22.6 °F 91% 30.29 in 10.0 mi Calm Calm - N/A   Scattered Clouds
5:55 AM 24.8 °F - 22.8 °F 92% 30.29 in 10.0 mi Calm Calm - N/A   Scattered Clouds
6:15 AM 23.5 °F - 21.4 °F 91% 30.29 in 10.0 mi Calm Calm - N/A   Clear
6:35 AM 24.1 °F - 22.1 °F 92% 30.29 in 10.0 mi Calm Calm - N/A   Clear
6:55 AM 22.8 °F - 20.7 °F 91% 30.28 in 10.0 mi Calm Calm - N/A   Clear
7:15 AM 23.2 °F - 21.2 °F 92% 30.28 in 10.0 mi Calm Calm - N/A   Clear
7:35 AM 23.0 °F - 21.0 °F 92% 30.28 in 10.0 mi Calm Calm - N/A   Clear
7:55 AM 22.6 °F - 20.5 °F 91% 30.28 in 10.0 mi Calm Calm - N/A   Clear
8:15 AM 24.3 °F - 22.1 °F 91% 30.28 in 10.0 mi Calm Calm - N/A   Clear
8:35 AM 26.4 °F - 24.1 °F 91% 30.28 in 10.0 mi Calm Calm - N/A   Clear
8:55 AM 29.7 °F - 26.4 °F 88% 30.28 in 10.0 mi Calm Calm - N/A   Clear
9:15 AM 31.6 °F - 26.6 °F 82% 30.28 in 10.0 mi Calm Calm - N/A   Clear
9:35 AM 33.4 °F - 26.2 °F 75% 30.27 in 10.0 mi Calm Calm - N/A   Clear
9:55 AM 36.0 °F - 25.9 °F 67% 30.26 in 10.0 mi Calm Calm - N/A   Clear
10:15 AM 37.2 °F - 27.0 °F 66% 30.26 in 10.0 mi Calm Calm - N/A   Clear
10:35 AM 39.9 °F - 28.0 °F 63% 30.25 in 10.0 mi Calm Calm - N/A   Clear
10:55 AM 41.4 °F - 28.8 °F 61% 30.24 in 10.0 mi Calm Calm - N/A   Clear
11:15 AM 43.9 °F - 30.4 °F 59% 30.23 in 10.0 mi Calm Calm - N/A   Clear
11:35 AM 45.7 °F - 31.6 °F 58% 30.21 in 10.0 mi Calm Calm - N/A   Clear
11:55 AM 48.6 °F - 32.7 °F 54% 30.20 in 10.0 mi Calm Calm - N/A   Clear
12:15 PM 51.3 °F - 32.7 °F 49% 30.18 in 10.0 mi Calm Calm - N/A   Clear
12:35 PM 53.1 °F - 33.3 °F 47% 30.16 in 10.0 mi Calm Calm - N/A   Clear
12:55 PM 54.3 °F - 31.8 °F 42% 30.15 in 10.0 mi Calm Calm - N/A   Clear
1:15 PM 54.0 °F - 31.8 °F 43% 30.13 in 10.0 mi East 3.5 mph - N/A   Clear
1:35 PM 54.9 °F - 31.5 °F 41% 30.12 in 10.0 mi Calm Calm - N/A   Clear
1:55 PM 55.6 °F - 31.3 °F 40% 30.11 in 10.0 mi Calm Calm - N/A   Clear
2:15 PM 55.8 °F - 30.2 °F 38% 30.10 in 10.0 mi Calm Calm - N/A   Clear
2:35 PM 55.4 °F - 29.3 °F 37% 30.09 in 10.0 mi Calm Calm - N/A   Clear
2:55 PM 55.4 °F - 30.0 °F 38% 30.08 in 10.0 mi Calm Calm - N/A   Clear
3:15 PM 55.4 °F - 31.6 °F 40% 30.08 in 10.0 mi Calm Calm - N/A   Clear
3:35 PM 54.7 °F - 31.3 °F 41% 30.07 in 10.0 mi Calm Calm - N/A   Clear
3:55 PM 53.2 °F - 35.1 °F 50% 30.07 in 10.0 mi Calm Calm - N/A   Clear
4:15 PM 48.7 °F - 34.3 °F 58% 30.07 in 10.0 mi Calm Calm - N/A   Clear
4:35 PM 46.4 °F - 35.6 °F 66% 30.07 in 10.0 mi Calm Calm - N/A   Clear
4:55 PM 43.5 °F - 34.3 °F 70% 30.07 in 10.0 mi Calm Calm - N/A   Clear
5:15 PM 41.0 °F - 33.6 °F 75% 30.07 in 10.0 mi Calm Calm - N/A   Clear
5:35 PM 37.9 °F - 32.4 °F 80% 30.07 in 10.0 mi Calm Calm - N/A   Clear
5:55 PM 36.9 °F - 31.1 °F 80% 30.07 in 10.0 mi Calm Calm - N/A   Clear
6:15 PM 35.1 °F - 30.2 °F 82% 30.07 in 10.0 mi Calm Calm - N/A   Clear
6:35 PM 33.1 °F 28.7 °F 29.7 °F 87% 30.07 in 10.0 mi WSW 4.6 mph - N/A   Clear
6:55 PM 32.4 °F - 28.6 °F 86% 30.08 in 10.0 mi Calm Calm - N/A   Clear
7:15 PM 31.8 °F - 27.5 °F 84% 30.06 in 10.0 mi Calm Calm - N/A   Clear
7:35 PM 31.3 °F - 27.5 °F 86% 30.07 in 10.0 mi Calm Calm - N/A   Clear
7:55 PM 30.2 °F - 27.0 °F 88% 30.07 in 10.0 mi Calm Calm - N/A   Clear
8:15 PM 29.8 °F - 27.0 °F 89% 30.07 in 10.0 mi Calm Calm - N/A   Clear
8:35 PM 29.7 °F - 26.2 °F 87% 30.07 in 10.0 mi Calm Calm - N/A   Clear
8:55 PM 29.5 °F - 26.8 °F 90% 30.07 in 10.0 mi Calm Calm - N/A   Scattered Clouds
9:15 PM 30.2 °F - 26.6 °F 86% 30.07 in 10.0 mi Calm Calm - N/A   Overcast
9:35 PM 31.5 °F - 28.0 °F 87% 30.06 in 10.0 mi Calm Calm - N/A   Overcast
9:55 PM 32.0 °F - 28.8 °F 88% 30.06 in 10.0 mi Calm Calm - N/A   Overcast
10:15 PM 32.4 °F - 29.3 °F 88% 30.06 in 10.0 mi Calm Calm - N/A   Overcast
10:35 PM 33.4 °F - 29.8 °F 87% 30.06 in 10.0 mi Calm Calm - N/A   Overcast
10:55 PM 34.2 °F - 30.0 °F 85% 30.05 in 10.0 mi Calm Calm - N/A   Overcast
11:15 PM 34.3 °F - 30.2 °F 85% 30.05 in 10.0 mi Calm Calm - N/A   Overcast
11:35 PM 34.3 °F - 30.9 °F 87% 30.04 in 10.0 mi Calm Calm - N/A   Overcast
11:55 PM 34.7 °F - 30.9 °F 86% 30.04 in 10.0 mi Calm Calm - N/A   Overcast